Overview Statistics Trail Chart Weather Telemetry Raw packets
 

This is the latest recevied weather packets stored in our database for station/object IU5JAE-13. If no packets are shown the sender has not sent any weather packets the latest 10 day(s).

<< 54 55 56 57 58 >>
Time Temp. Humidity Pressure Rain* Wind** Luminosity Snow
1787876423 23.89° C 81% 1019.6 hPa 0 mm - 0 W/m² -
1787875820 24.44° C 79% 1019.7 hPa 0 mm - 0 W/m² -
1787875217 24.44° C 78% 1020 hPa 0 mm - 0 W/m² -
1787874635 24.44° C 79% 1019.9 hPa 0 mm - 0 W/m² -
1787874032 24.44° C 80% 1020.3 hPa 0 mm - 0 W/m² -
1787873430 23.89° C 82% 1020 hPa 0 mm - 0 W/m² -
1787872827 23.89° C 82% 1020.5 hPa 0 mm - 0 W/m² -
1787872225 24.44° C 82% 1021 hPa 0 mm - 0 W/m² -
1787871623 24.44° C 80% 1021 hPa 0 mm - 0 W/m² -
1787871020 23.89° C 82% 1020.9 hPa 0 mm - 0 W/m² -
1787870418 24.44° C 82% 1020.8 hPa 0 mm - 0 W/m² -
1787869815 25° C 79% 1020.8 hPa 0 mm - 0 W/m² -
1787869233 24.44° C 81% 1020.9 hPa 0 mm - 0 W/m² -
1787868631 23.89° C 83% 1021 hPa 0 mm - 0 W/m² -
1787868029 23.89° C 83% 1020.8 hPa 0 mm - 0 W/m² -
1787867426 25° C 80% 1020.8 hPa 0 mm - 0 W/m² -
1787866824 25° C 78% 1020.6 hPa 0 mm - 0 W/m² -
1787866221 25° C 79% 1020.5 hPa 0 mm - 0 W/m² -
1787865619 25° C 81% 1020.5 hPa 0 mm - 0 W/m² -
1787865016 25° C 81% 1020.6 hPa 0 mm - 0 W/m² -
1787864434 25° C 80% 1020.5 hPa 0 mm - 0 W/m² -
1787863831 25° C 81% 1020.4 hPa 0 mm - 0 W/m² -
1787863229 25.56° C 80% 1020.3 hPa 0 mm - 0 W/m² -
1787862627 25° C 81% 1020.1 hPa 0 mm - 0 W/m² -
1787862024 25° C 82% 1020 hPa 0 mm - 0 W/m² -

* Rain latest hour (hover to see other rain measurements)
** Current wind speed in m/s (hover to see current wind gust speed)